Regional Weather Roundup
Issued by NWS Bismarck, ND

Current Version | Previous Version | Text Only | Print | Product List | Glossary On
Versions: 1 2 3 4 5 6 7 8 9 10 11 12 13 14 15 16 17 18 19 20 21 22 23 24 25 26 27 28 29 30 31 32 33 34 35 36 37 38 39 40 41 42 43 44 45 46 47 48 49 50
000
ASUS43 KBIS 201710
RWRBIS

NWR BROADCAST TEXT
NATIONAL WEATHER SERVICE BISMARCK ND
1200 PM CDT SAT OCT 20 2018

NOTE: "FAIR" INDICATES FEW OR NO CLOUDS BELOW 12,000 FEET WITH NO
SIGNIFICANT WEATHER AND/OR OBSTRUCTIONS TO VISIBILITY.


CITY           SKY/WX    TMP DP  RH WIND       PRES   REMARKS
WILLISTON      SUNNY     37  22  54 SE9       30.36F
MINOT          SUNNY     34  16  47 VRB5      30.38F
MINOT AFB      SUNNY     32  16  50 CALM      30.37F
BISMARCK       SUNNY     37  17  44 VRB3      30.42S
DICKINSON      SUNNY     41  24  51 VRB3      30.34F
GARRISON         N/A     33  17  51 CALM      30.39S
HETTINGER ARPT SUNNY     44  28  53 S3        30.38S
JAMESTOWN      SUNNY     34  18  52 N10       30.39S
CARRINGTON     FAIR      32  18  55 N8G14     30.41S
HAZEN          FAIR      36  21  55 CALM      30.42F
LINTON           N/A     37  16  41 N10       30.43S
MANDAN         FAIR      34  19  55 CALM      30.41F
OAKES          FAIR      36  18  48 N12G21    30.40S
RUGBY          FAIR      30  16  55 CALM      30.39S
STANLEY        FAIR      32  18  55 S9        30.36F
TIOGA          FAIR      34  16  47 S9        30.36F
WATFORD CITY   FAIR      37  19  48 S5        30.35F
$$

CITY           SKY/WX    TMP DP  RH WIND       PRES   REMARKS
GRAND FORKS    FAIR      35  20  54 N18G26    30.37R
GRAND FORKS AF MOSUNNY   37  20  50 N15       30.38R
DEVILS LAKE    FAIR      31  19  61 NW10      30.40R
FARGO          PTSUNNY   36  20  52 N18G25    30.37S
CANDO          FAIR      34  27  75 NW8       30.40S
CAVALIER       FAIR      34  19  55 N12G17    30.37S
GRAFTON        FAIR      34  21  60 N14G24    30.39S
GWINNER          N/A     37  18  44 CALM      30.39S
LANGDON        FAIR      34  19  55 NW9       30.35S
ROLLA          FAIR      30  16  55 VRB5      30.38R
WALHALLA         N/A     34  34 100 N13       30.37S
$$

CITY           SKY/WX    TMP DP  RH WIND       PRES   REMARKS
ABERDEEN       MOSUNNY   37  22  54 N14       30.43R
MOBRIDGE       SUNNY     39  21  48 N8        30.40S
BUFFALO          N/A     51  26  37 SE7       30.32F
RAPID CITY     SUNNY     51  26  37 VRB3      30.39F
GLASGOW        SUNNY     47  28  47 SE16      30.22F
SIDNEY           N/A     41  26  55 E5        30.34F
WOLF POINT     SUNNY     43  30  60 E8        30.29F
GLENDIVE       SUNNY     45  26  47 SE7       30.32F
MILES CITY     SUNNY     50  33  52 SE13      30.27F
BAKER          SUNNY     52  26  36 SE12      30.32F
$$

CITY           SKY/WX    TMP DP  RH WIND       PRES   REMARKS
BILLINGS       MOSUNNY   51  33  50 SW14      30.24F
GREAT FALLS    SUNNY     64  27  24 SW20G26   30.14F
REGINA         MOSUNNY   34  18  51 SE18G24   30.27F
ESTEVAN        MOSUNNY   34  18  51 S9        30.34F
$$




USA.gov is the U.S. government's official web portal to all federal, state and local government web resources and services.